Regional Weather Roundup
Issued by NWS

Home | Current Version | Previous Version | Text Only | Print | Product List | Glossary On
Versions: 1 2 3 4 5 6 7 8 9 10 11 12 13 14 15 16 17 18 19 20 21 22 23 24 25 26 27 28 29 30 31 32 33 34 35 36 37 38 39 40 41 42 43 44 45 46 47 48 49 50
000
ASUS43 KMKX 300521
RWRWI

WISCONSIN REGIONAL WEATHER ROUNDUP
NATIONAL WEATHER SERVICE MILWAUKEE/SULLIVAN WI
1200 AM CDT TUE SEP 30 2014

NOTE: "FAIR" INDICATES FEW OR NO CLOUDS BELOW 12,000 FEET WITH NO
SIGNIFICANT WEATHER AND/OR OBSTRUCTIONS TO VISIBILITY.

WIZ001-002-006>008-014>016-023>028-300600-
NORTHWEST WISCONSIN

CITY           SKY/WX    TMP DP  RH WIND       PRES   REMARKS
SUPERIOR ARPT  CLOUDY    44  39  82 E6        30.18F
ASHLAND        CLOUDY    44  40  85 NE9       30.20S
HAYWARD        CLOUDY    42  39  89 NE10      30.15F
SIREN          CLOUDY    42  40  91 NE3       30.15S
CUMBERLAND     CLOUDY    41  36  81 E13       30.13S
RICE LAKE      CLOUDY    41  37  84 E8        30.15S
CHETEK         CLOUDY    42  38  87 NE6G18    30.14S
LADYSMITH      CLOUDY    41  37  87 NE12G18   30.16S
EAU CLAIRE     CLOUDY    44  37  76 NE13      30.12R
MENOMONIE      PTCLDY    44  39  84 NE9       30.12S
NEW RICHMOND   MOCLDY    42  40  91 E6        30.12S
OSCEOLA        CLOUDY    43  42  95 NE7       30.16R
$$

WIZ003>005-009-010-017-018-300600-
NORTH CENTRAL WISCONSIN

CITY           SKY/WX    TMP DP  RH WIND       PRES   REMARKS
MANITOWISH WTR CLOUDY    37  37 100 NE8       30.16S WCI  31
ARBOR VITAE    CLOUDY    39  37  93 NE8       30.15S FOG     WCI  34
WOODRUFF       CLOUDY    39  37  93 NE8       30.15S FOG     WCI  34
RHINELANDER    CLOUDY    37  35  92 NE8       30.15S WCI  31
EAGLE RIVER    CLOUDY    37  37  99 N7        30.14F WCI  31
LAND O LAKES   CLOUDY    38  37  99 NE7       30.16S FOG     WCI  32
PHILLIPS       CLOUDY    38  36  92 NE10      30.13F WCI  31
TOMAHAWK       CLOUDY    38  35  89 N5        30.15S WCI  35
MEDFORD        MOCLDY    38  36  91 NE13      30.12S WCI  30
MERRILL        CLOUDY    39  36  87 NE9       30.13S WCI  33
$$

WIZ029-030-035-036-043>047-300600-
CENTRAL WISCONSIN

CITY           SKY/WX    TMP DP  RH WIND       PRES   REMARKS
WAUSAU         CLOUDY    42  37  82 NE6       30.11F
MOSINEE        CLOUDY    41  37  87 NE10      30.12F
MARSHFIELD     CLOUDY    43  37  79 NE14      30.10S
STEVENS POINT  CLOUDY    42  37  84 NE13      30.11F
WAUPACA        CLOUDY    46  40  78 N8G16     30.12R
WAUTOMA        NOT AVBL
WISC RAPIDS    CLOUDY    46  39  76 NE13      30.12R
CAMP DOUGLAS   CLOUDY    46  46 100 NE5       30.09S
$$

WIZ011>013-019>022-031-037>040-048>050-300600-
NORTHEAST WISCONSIN

CITY           SKY/WX    TMP DP  RH WIND       PRES   REMARKS
ANTIGO         CLOUDY    37  36  95 NE12      30.13S WCI  30
SHAWANO        CLOUDY    45  38  77 N14G20    30.13S
OCONTO         CLOUDY    43  39  87 N9        30.11S
STURGEON BAY   NOT AVBL
GREEN BAY      CLOUDY    43  39  86 N12       30.11R
MANITOWOC      NOT AVBL
APPLETON       CLOUDY    45  36  70 N10       30.11R
CLINTONVILLE   CLOUDY    43  37  81 N9        30.11S
OSHKOSH        CLOUDY    47  40  76 NE15      30.09R
$$

WIZ032>034-041-042-053>061-300600-
SOUTHWEST WISCONSIN

CITY           SKY/WX    TMP DP  RH WIND       PRES   REMARKS
LA CROSSE      CLEAR     50  44  80 NE8       30.08S
SPARTA         CLEAR     42  41  96 NE5       30.10R
VIROQUA        CLEAR     46  46 100 NE6       30.06S
BOSCOBEL       CLOUDY    55  47  74 E8        30.06S
PRAIRIE DU CHI CLEAR     53  46  76 NE6       30.05S
PLATTEVILLE    CLOUDY    53  50  90 NE9       30.05S
$$

WIZ056-057-062-063-064-067-068-300600-
SOUTH CENTRAL WISCONSIN

CITY           SKY/WX    TMP DP  RH WIND       PRES   REMARKS
REEDSBURG      CLOUDY    49  45  84 NE7       30.07S
BARABOO/DELLS  CLOUDY    49  46  86 NE6       30.07S
LONE ROCK      CLOUDY    57  47  69 NE12      30.06S
MINERAL POINT  CLOUDY    52  50  93 NE10      30.05S
MADISON        CLOUDY    50  46  86 N10       30.06S
MIDDLETON      CLOUDY    51  48  90 NE12      30.07R
WATERTOWN      CLOUDY    48  45  90 NE12      30.06R
MONROE         CLOUDY    50  48  93 NE15      30.04R
JANESVILLE     CLOUDY    52  45  76 NE12      30.04S
$$

WIZ051-052-058>065-066-070>072-300600-
SOUTHEAST WISCONSIN

CITY           SKY/WX    TMP DP  RH WIND       PRES   REMARKS
MILWAUKEE      CLOUDY    50  44  80 NE14G22   30.05S
WAUKESHA       CLOUDY    46  43  87 NE6       30.06S
MILWAUKEE/TIMM CLOUDY    46  41  81 N13       30.06S
RACINE         CLOUDY    51  44  77 N16       30.06R
BURLINGTON     CLOUDY    48  46  91 NE12      30.04S
KENOSHA        CLOUDY    51  46  83 N8        30.04S
FOND DU LAC    CLOUDY    48  41  76 NE17      30.09R
SHEBOYGAN      CLOUDY    45  39  79 N14       30.08R
WEST BEND      CLOUDY    46  41  81 NE8       30.06S
JUNEAU         CLOUDY    47  45  90 N7        30.07S
$$

LSZ147-162-300600-
LAKE SUPERIOR

STATION/POSITION TIME  TEMP    WIND        PRES    WAVE
                       AIR SEA DIR/SP/G            HT/PER
                 (UTC) (F)     (DEG/KT/KT) (MB)    (FT/S)
W MID LAKE BUOY  0450   44 49   40/ 12/ 17 1022.8F   4/ 7
DEVILS ISLAND    0500   44      50/ 13/ 14 1023.6R
SAXON HARBOR     0400   45      80/  7/ 10 1022.4S
$$

LMZ867-665-643>646-300600-
LAKE MICHIGAN

STATION/POSITION TIME  TEMP    WIND        PRES    WAVE
                       AIR SEA DIR/SP/G            HT/PER
                 (UTC) (F)     (DEG/KT/KT) (MB)    (FT/S)
CHAMBERS ISLAND  0400   47     340/ 19/ 25 1019.0F
N MID LAKE BUOY  0450   47 58  350/ 19/ 25 1017.3F   4/ 5
NORTHPORT PIER   0400   47     350/ 22/ 27 1018.6F
KEWAUNEE LAKESHO 0500   45     360/  8/ 13 1017.7S
SHEBOYGAN LAKESH 0500   46 55   10/ 17/ 21 1018.8R
PORT WASHINGTON  0440           30/  9/ 14 1018.3S
ATWATER BUOY     0500   51      30/ 21/ 25 1018.1F
MILWAUKEE LAKESH 0500           10/ 15/ 20   N/A
S MID LAKE BUOY  0450   53 63  350/ 21/ 27 1016.1R   8/ 8
KENOSHA   LAKESH 0500           10/ 22/ 25 1016.6S
$$

TC  - TEMPERATURE IN CELSIUS
VSB - VISIBILITY IN STATUTE MILES
WCI - WIND CHILL INDEX
HX  - HEAT INDEX



USA.gov is the U.S. government's official web portal to all federal, state and local government web resources and services.